Regional Weather Roundup
Issued by NWS Kansas City/Pleasant Hill, MO

Home | Current Version | Previous Version | Text Only | Print | Product List | Glossary On
Versions: 1 2 3 4 5 6 7 8 9 10 11 12 13 14 15 16 17 18 19 20 21 22 23 24 25 26 27
000
ASUS43 KEAX 230910
RWREAX

WEATHER ROUNDUP FOR EASTERN KANSAS AND NORTHWEST MISSOURI
NATIONAL WEATHER SERVICE KANSAS CITY/PLEASANT HILL MO
400 AM CDT SAT JUL 23 2016

KSZ040-057-103>105-MOZ028-029-037-043-231000-
...KANSAS CITY METROPOLITAN AREA...

CITY           SKY/WX    TMP DP  RH WIND       PRES   REMARKS
K.C. INTL      PTCLDY    79  73  82 S10       29.95F
K.C. DOWNTOWN  CLEAR     83  73  72 SW6       29.94F
LEES SUMMIT    CLEAR     82  75  79 S10       29.97F
OLATHE - IXD   CLEAR     78  72  81 SE8       29.96F
OLATHE - OJC   CLEAR     76  72  87 S5        29.97F
LAWRENCE       CLEAR     76  72  87 SE9       29.94F

$$

MOZ001>008-011>017-020>025-030>033-038>040-044>046-053-054-231000-
...NORTHERN AND CENTRAL MISSOURI...

CITY           SKY/WX    TMP DP  RH WIND       PRES   REMARKS
ST. JOSEPH     CLOUDY    82  72  71 S8        29.92F
MOSBY          SUNNY     79  77  94 SE3       29.95F
WHITEMAN AFB   CLEAR     78  78 100 S6        29.97R
CLINTON        CLEAR     77  75  94 CALM      29.98S
SEDALIA        CLEAR     78  75  90 S7        29.99S
WARSAW         NOT AVBL
CHILLICOTHE      N/A     79  76  90 CALM      29.97S
KIRKSVILLE     CLOUDY    77  75  93 SW3       29.99S

$$

MOZ041-047>049-056>058-063>065-088>090-097-231000-
...EASTERN AND SOUTHERN MISSOURI...

CITY           SKY/WX    TMP DP  RH WIND       PRES   REMARKS
ST. LOUIS INTL PTCLDY    78  72  81 CALM      29.99F
SPIRIT OF STL  CLEAR     72  72 100 CALM      29.98S
COLUMBIA       CLEAR     76  75  97 SE5       29.99S
JEFFERSON CITY CLEAR     76  75  97 SE3       29.98S
ROLLA          PTCLDY    75  71  87 S7        30.00S
OSAGE BEACH    CLEAR     77  75  93 SE3       30.00S
SPRINGFIELD    CLEAR     79  74  84 SE6       30.00F
BRANSON        CLEAR     75  73  94 CALM      30.03R
JOPLIN         CLEAR     78  72  81 S8        29.98F
WEST PLAINS    CLEAR     76  72  87 CALM      30.03F

$$

IAZ060-094-KSZ022-034>040-054-083-096-NEZ052-066-093-231000-
...KANSAS...SOUTHEAST NEBRASKA AND IOWA...

CITY           SKY/WX    TMP DP  RH WIND       PRES   REMARKS
TOPEKA         MOCLDY    82  71  69 CALM      29.93S
MANHATTAN      PTCLDY    84  68  58 SW6       29.92S
EMPORIA        PTCLDY    78  70  76 S10       29.94F
CHANUTE        CLEAR     76  73  91 SE6       29.96S
WICHITA        PTCLDY    78  67  68 S7        29.95R
OMAHA          CLOUDY    83  74  74 SE10      29.88F
LINCOLN        PTCLDY    82  71  69 S13       29.88F
FALLS CITY     CLOUDY    82  72  71 VRB5      29.92R THUNDER
LAMONI         CLOUDY    78  77  96 S10       29.94F
DES MOINES     PTCLDY    80  76  87 S12       29.90F

$$





USA.gov is the U.S. government's official web portal to all federal, state and local government web resources and services.